Hourly Weather Suhaya Elan

Today, 18 January, Monday

Time Temperature Precipitation Wind Pressure Humidity
00:00 -23°C° 0 mm 2 mps 746 mmHg 95%
01:00 -23°C° 0 mm 2 mps 746 mmHg 95%
02:00 -23°C° 0 mm 2 mps 746 mmHg 94%
03:00 -24°C° 0 mm 2 mps 746 mmHg 95%
04:00 -23°C° 0 mm 2 mps 746 mmHg 95%
05:00 -23°C° 0 mm 2 mps 746 mmHg 94%
06:00 -21°C° 0 mm 2 mps 746 mmHg 94%
07:00 -21°C° 0 mm 2 mps 746 mmHg 94%
08:00 -22°C° 0 mm 3 mps 746 mmHg 93%
09:00 -22°C° 0 mm 3 mps 746 mmHg 92%
10:00 -19°C° 0.2 mm 2 mps 746 mmHg 93%
11:00 -18°C° 0.2 mm 2 mps 746 mmHg 93%
12:00 -16°C° 0.2 mm 1 mps 746 mmHg 94%
13:00 -15°C° 0.3 mm 1 mps 746 mmHg 94%
14:00 -15°C° 0.3 mm 1 mps 746 mmHg 94%
15:00 -14°C° 0.3 mm 1 mps 746 mmHg 94%
16:00 -15°C° 0.2 mm 1 mps 746 mmHg 95%
17:00 -15°C° 0.2 mm 1 mps 746 mmHg 95%
18:00 -17°C° 0.2 mm 2 mps 746 mmHg 96%
19:00 -15°C° 0 mm 1 mps 746 mmHg 96%
20:00 -16°C° 0 mm 1 mps 746 mmHg 96%
21:00 -16°C° 0 mm 0 mps 746 mmHg 96%
22:00 -17°C° 0 mm 0 mps 746 mmHg 96%
23:00 -17°C° 0 mm 0 mps 746 mmHg 96%

Tomorrow, 19 January, Tuesday

Time Temperature Precipitation Wind Pressure Humidity
00:00 -17°C° 0 mm 0 mps 746 mmHg 96%
01:00 -18°C° 0 mm 0 mps 746 mmHg 97%
02:00 -19°C° 0 mm 0 mps 746 mmHg 98%
03:00 -20°C° 0 mm 0 mps 746 mmHg 99%
04:00 -21°C° 0 mm 0 mps 746 mmHg 99%
05:00 -21°C° 0 mm 1 mps 746 mmHg 99%
06:00 -21°C° 0 mm 1 mps 746 mmHg 99%
07:00 -21°C° 0 mm 1 mps 747 mmHg 99%
08:00 -21°C° 0 mm 1 mps 747 mmHg 99%
09:00 -20°C° 0 mm 1 mps 747 mmHg 98%
10:00 -19°C° 0 mm 1 mps 747 mmHg 97%
11:00 -18°C° 0 mm 1 mps 747 mmHg 95%
12:00 -17°C° 0 mm 1 mps 747 mmHg 93%
13:00 -17°C° 0 mm 1 mps 747 mmHg 94%
14:00 -17°C° 0 mm 1 mps 747 mmHg 94%
15:00 -16°C° 0 mm 1 mps 746 mmHg 95%
16:00 -17°C° 0.1 mm 1 mps 747 mmHg 95%
17:00 -17°C° 0.1 mm 1 mps 747 mmHg 96%
18:00 -17°C° 0.1 mm 1 mps 747 mmHg 97%
19:00 -18°C° 0 mm 1 mps 747 mmHg 97%
20:00 -18°C° 0 mm 1 mps 747 mmHg 97%
21:00 -18°C° 0 mm 1 mps 747 mmHg 97%
22:00 -20°C° 0 mm 2 mps 747 mmHg 97%
23:00 -21°C° 0 mm 2 mps 748 mmHg 97%

Day after tomorrow, 20 January, Wednesday

Time Temperature Precipitation Wind Pressure Humidity
00:00 -21°C° 0 mm 2 mps 748 mmHg 97%
01:00 -21°C° 0 mm 2 mps 748 mmHg 97%
02:00 -21°C° 0 mm 2 mps 748 mmHg 97%
03:00 -23°C° 0 mm 2 mps 748 mmHg 98%
04:00 -24°C° 0 mm 2 mps 748 mmHg 98%
05:00 -24°C° 0 mm 2 mps 748 mmHg 98%
06:00 -25°C° 0 mm 2 mps 749 mmHg 98%
07:00 -26°C° 0 mm 2 mps 749 mmHg 98%
08:00 -27°C° 0 mm 2 mps 749 mmHg 98%
09:00 -27°C° 0 mm 2 mps 749 mmHg 98%
10:00 -26°C° 0 mm 2 mps 750 mmHg 97%
11:00 -25°C° 0 mm 2 mps 750 mmHg 96%
12:00 -24°C° 0 mm 2 mps 750 mmHg 96%
13:00 -24°C° 0 mm 2 mps 750 mmHg 96%
14:00 -24°C° 0 mm 2 mps 750 mmHg 96%
15:00 -24°C° 0 mm 2 mps 750 mmHg 96%
16:00 -24°C° 0 mm 2 mps 751 mmHg 97%
17:00 -25°C° 0 mm 2 mps 751 mmHg 97%
18:00 -26°C° 0 mm 2 mps 752 mmHg 98%
19:00 -26°C° 0 mm 2 mps 752 mmHg 98%
20:00 -26°C° 0 mm 2 mps 752 mmHg 98%
21:00 -26°C° 0 mm 2 mps 752 mmHg 98%
22:00 -26°C° 0 mm 2 mps 753 mmHg 98%
23:00 -26°C° 0 mm 2 mps 753 mmHg 98%

21 January, Thursday

Time Temperature Precipitation Wind Pressure Humidity
00:00 -26°C° 0 mm 2 mps 753 mmHg 98%
01:00 -26°C° 0 mm 2 mps 753 mmHg 98%
02:00 -26°C° 0 mm 2 mps 753 mmHg 98%
03:00 -26°C° 0 mm 2 mps 754 mmHg 98%
04:00 -27°C° 0 mm 2 mps 754 mmHg 98%
05:00 -27°C° 0 mm 2 mps 754 mmHg 98%
06:00 -27°C° 0 mm 2 mps 754 mmHg 98%
07:00 -26°C° 0 mm 2 mps 754 mmHg 98%
08:00 -26°C° 0 mm 2 mps 754 mmHg 98%
09:00 -26°C° 0 mm 2 mps 755 mmHg 97%
10:00 -25°C° 0 mm 2 mps 755 mmHg 96%
11:00 -23°C° 0 mm 2 mps 755 mmHg 95%
12:00 -23°C° 0 mm 3 mps 755 mmHg 95%
13:00 -22°C° 0 mm 3 mps 754 mmHg 94%
14:00 -22°C° 0 mm 3 mps 754 mmHg 94%
15:00 -21°C° 0 mm 3 mps 754 mmHg 94%
16:00 -22°C° 0 mm 3 mps 754 mmHg 94%
17:00 -23°C° 0 mm 4 mps 753 mmHg 94%
18:00 -24°C° 0 mm 4 mps 753 mmHg 94%
19:00 -23°C° 0 mm 4 mps 753 mmHg 93%
20:00 -24°C° 0 mm 5 mps 752 mmHg 91%
21:00 -22°C° 0 mm 5 mps 752 mmHg 90%
22:00 -22°C° 0 mm 6 mps 752 mmHg 89%
23:00 -21°C° 0 mm 6 mps 751 mmHg 89%

22 January, Friday

Time Temperature Precipitation Wind Pressure Humidity
00:00 -20°C° 0 mm 7 mps 751 mmHg 89%
01:00 -19°C° 0.1 mm 7 mps 750 mmHg 91%
02:00 -18°C° 0.1 mm 7 mps 750 mmHg 92%
03:00 -15°C° 0.1 mm 7 mps 750 mmHg 93%
04:00 -14°C° 0.1 mm 7 mps 750 mmHg 93%
05:00 -12°C° 0.1 mm 6 mps 749 mmHg 93%
06:00 -11°C° 0.1 mm 6 mps 749 mmHg 93%
07:00 -10°C° 0 mm 6 mps 749 mmHg 93%
08:00 -8°C° 0 mm 6 mps 749 mmHg 93%
09:00 -6°C° 0 mm 6 mps 749 mmHg 93%
10:00 -5°C° 0 mm 6 mps 749 mmHg 93%
11:00 -4°C° 0 mm 6 mps 749 mmHg 92%
12:00 -3°C° 0 mm 6 mps 749 mmHg 92%
13:00 -3°C° 0 mm 6 mps 749 mmHg 93%
14:00 -3°C° 0 mm 6 mps 749 mmHg 94%
15:00 -1°C° 0 mm 5 mps 749 mmHg 95%
16:00 -1°C° 0 mm 5 mps 749 mmHg 95%
17:00 -1°C° 0 mm 5 mps 749 mmHg 95%
18:00 -1°C° 0 mm 5 mps 749 mmHg 96%
19:00 -1°C° 0 mm 5 mps 749 mmHg 95%
20:00 -1°C° 0 mm 5 mps 749 mmHg 95%
21:00 -1°C° 0 mm 5 mps 749 mmHg 94%
22:00 -1°C° 0 mm 5 mps 749 mmHg 95%
23:00 -1°C° 0 mm 5 mps 749 mmHg 95%

23 January, Saturday

Time Temperature Precipitation Wind Pressure Humidity
00:00 -1°C° 0 mm 5 mps 749 mmHg 95%
01:00 -1°C° 0 mm 5 mps 749 mmHg 96%
02:00 -2°C° 0 mm 5 mps 749 mmHg 96%
03:00 -2°C° 0 mm 5 mps 749 mmHg 96%
04:00 -2°C° 0 mm 5 mps 749 mmHg 97%
05:00 -2°C° 0 mm 5 mps 749 mmHg 97%
06:00 -1°C° 0 mm 5 mps 749 mmHg 97%
07:00 -1°C° 0 mm 5 mps 749 mmHg 97%
08:00 -1°C° 0 mm 5 mps 749 mmHg 97%
09:00 -2°C° 0 mm 5 mps 750 mmHg 96%
10:00 -2°C° 0 mm 5 mps 749 mmHg 95%
11:00 -2°C° 0 mm 5 mps 749 mmHg 94%
12:00 -2°C° 0 mm 5 mps 749 mmHg 93%
13:00 -2°C° 0 mm 5 mps 749 mmHg 92%
14:00 -2°C° 0 mm 5 mps 749 mmHg 91%
15:00 -2°C° 0 mm 5 mps 749 mmHg 90%
16:00 -2°C° 0 mm 5 mps 749 mmHg 90%
17:00 -2°C° 0 mm 5 mps 749 mmHg 89%
18:00 -4°C° 0 mm 5 mps 749 mmHg 88%
19:00 -4°C° 0 mm 5 mps 749 mmHg 88%
20:00 -4°C° 0 mm 5 mps 749 mmHg 88%
21:00 -5°C° 0 mm 5 mps 749 mmHg 88%
22:00 -5°C° 0 mm 5 mps 749 mmHg 88%
23:00 -5°C° 0 mm 5 mps 749 mmHg 87%
Show more